Meath Environmental Platform

Observations for Trim Patrick St

Time AQI Temp °C Hum % Pres Pa CO μg/m³ H₂S μg/m³ NO μg/m³ NO₂ μg/m³ O₃ μg/m³ SO₂ μg/m³ PM1 μg/m³ PM2.5 μg/m³ PM10 μg/m³
Saturday 1 August 2026
09:36 1 21.8 55 73,642 0.12 0 3.41 6.01 34.15 2.71 6.29 12.09 13.3
09:35 1 21.7 54 73,736 0.14 0 3.13 3.33 15.02 2.18 6.29 12.21 13.43
09:34 1 21.7 54 73,895 0.16 0 3.22 1.48 14.57 2.11 6.29 11.42 12.56
09:33 1 21.7 56 74,043 0.17 0 3.42 3.69 20.89 3.24 8 12.76 14.03
09:32 1 21.6 56 74,120 0.19 0 3.31 3.66 14.46 2.36 7.14 12.82 14.11
09:31 1 21.6 56 74,190 0.2 0 3.37 3.88 19.79 2.5 5.43 11.27 12.39
09:30 1 21.5 56 74,247 0.22 0 3.46 3.32 15.47 2.08 5.43 10.52 11.57
09:29 1 21.5 58 74,322 0.21 0 3.55 4.03 30.06 2.58 5.43 11.17 12.29
09:28 1 21.4 57 74,394 0.23 0 3.53 3.65 22.67 2.48 6.29 12.71 13.98
09:26 1 21.3 55 74,577 0.29 0 3.32 2.7 3.85 1.81 5.43 11.36 12.5
09:25 1 21.3 56 74,699 0.28 0 3.58 4.68 13.25 1.84 5.43 11.26 12.38
09:24 1 21.2 57 74,819 0.29 0 3.85 5.87 15.21 1.87 6.29 12.74 14.02
09:23 1 21.1 56 74,941 0.32 0 3.5 5.82 11.88 1.43 5.43 11.29 12.42
09:22 1 21.1 59 75,078 0.32 0 4.07 3.77 9.88 1.86 6.29 11.05 12.15
09:21 1 21 56 75,261 0.32 0 3.53 5.39 15.15 1.71 7.14 12.76 14.03
09:20 1 20.9 58 75,438 0.29 0 3.52 5.66 16.3 1.44 6.29 11.92 13.11
09:19 1 20.8 56 75,635 0.32 0 3.24 4.63 16.68 1.17 6.29 11.25 12.38
09:17 1 20.6 61 76,132 0.33 0 3.55 3.14 11.66 1.38 5.43 10.93 12.02
09:15 1 20.3 59 76,853 0.34 0 3.86 5.61 9.01 1.32 5.43 11.82 13
09:14 1 20.1 59 77,229 0.34 0 4.07 7.34 19.7 1.58 7.14 11.77 12.95